EW2270 Weather Reports


Display with metric or nautical units.
time (UTC)temp
F
wind
direction
speed
MPH
gust
MPH
rain 1hr
in
rain 24hr
in
rain mn
in
humidity
%
barometer
mb
20260509224520 74 29 2.0 8.0 0.00 0.00 0.00 35 1016.5
20260509223017 74 333 3.0 11.0 0.00 0.00 0.00 33 1016.6
20260509221517 73 271 3.0 12.0 0.00 0.00 0.00 33 1016.7
20260509220014 73 25 6.0 12.0 0.00 0.00 0.00 33 1016.8
20260509214512 73 338 5.0 10.0 0.00 0.00 0.00 32 1017.0
20260509213011 72 349 6.0 10.0 0.00 0.00 0.00 34 1017.2
20260509211506 71 340 6.0 13.0 0.00 0.00 0.00 32 1017.4
20260509210004 71 269 2.0 9.0 0.00 0.00 0.00 34 1017.6
20260509204502 71 301 4.0 8.0 0.00 0.00 0.00 36 1017.7
20260509203101 70 349 3.0 8.0 0.00 0.00 0.00 37 1017.8
20260509201557 70 9 6.0 9.0 0.00 0.00 0.00 40 1017.9
20260509200056 69 5 5.0 11.0 0.00 0.00 0.00 41 1018.1
20260509194559 69 327 4.0 7.0 0.00 0.00 0.00 43 1018.2
20260509193052 69 280 0.0 4.0 0.00 0.00 0.00 41 1018.6
20260509191551 67 89 2.0 8.0 0.00 0.00 0.00 43 1018.8
20260509190052 68 354 2.0 7.0 0.00 0.00 0.00 45 1019.1
20260509184548 67 356 1.0 6.0 0.00 0.00 0.00 43 1019.3
20260509183047 67 130 1.0 4.0 0.00 0.00 0.00 45 1019.4
20260509181545 66 200 1.0 5.0 0.00 0.00 0.00 48 1019.6
20260509180039 64 309 4.0 6.0 0.00 0.00 0.00 50 1019.7
20260509174538 64 30 1.0 6.0 0.00 0.00 0.00 50 1019.9
20260509173037 63 305 2.0 8.0 0.00 0.00 0.00 52 1019.8
20260509171538 63 50 3.0 7.0 0.00 0.00 0.00 52 1019.8
20260509170037 64 4 3.0 6.0 0.00 0.00 0.00 51 1019.9
20260509164534 63 209 0.0 5.0 0.00 0.00 0.00 52 1020.1
20260509163048 63 266 1.0 2.0 0.00 0.00 0.00 49 1020.2
20260509161531 61 225 0.0 3.0 0.00 0.00 0.00 53 1020.3
20260509160030 60 257 0.0 5.0 0.00 0.00 0.00 54 1020.3
20260509154526 60 271 1.0 3.0 0.00 0.00 0.00 55 1020.4
20260509153025 59 204 2.0 4.0 0.00 0.00 0.00 56 1020.1
20260509151521 58 176 3.0 5.0 0.00 0.00 0.00 57 1020.1
20260509150017 57 210 1.0 4.0 0.00 0.00 0.00 65 1020.3
20260509144516 55 245 3.0 4.0 0.00 0.00 0.00 70 1020.3
20260509143014 56 180 0.0 2.0 0.00 0.00 0.00 72 1020.2
20260509141517 51 203 1.0 3.0 0.00 0.00 0.00 80 1020.1
20260509140011 49 115 0.0 1.0 0.00 0.00 0.00 79 1020.3
20260509134509 47 115 0.0 2.0 0.00 0.00 0.00 78 1020.3
20260509133009 47 115 0.0 2.0 0.00 0.00 0.00 77 1020.3
20260509131510 45 115 0.0 1.0 0.00 0.00 0.00 79 1020.1
20260509130012 43 115 0.0 2.0 0.00 0.00 0.00 83 1020.1
20260509124502 44 115 1.0 3.0 0.00 0.00 0.00 81 1019.8
20260509123002 48 138 4.0 6.0 0.00 0.00 0.00 74 1019.8
20260509121600 45 139 1.0 3.0 0.00 0.00 0.00 80 1019.9
20260509120058 45 141 1.0 5.0 0.00 0.00 0.00 79 1019.8
20260509114559 47 140 3.0 6.0 0.00 0.00 0.00 77 1019.7
20260509113052 46 143 2.0 4.0 0.00 0.00 0.00 77 1019.9
20260509111551 47 146 0.0 5.0 0.00 0.00 0.00 75 1019.8
20260509110054 49 150 5.0 7.0 0.00 0.00 0.00 73 1019.7
20260509104546 49 94 3.0 6.0 0.00 0.00 0.00 71 1019.9
20260509103044 48 148 5.0 7.0 0.00 0.00 0.00 73 1019.7
20260509101543 49 142 3.0 6.0 0.00 0.00 0.00 70 1019.6
20260509100044 50 143 2.0 4.0 0.00 0.00 0.00 71 1019.8
20260509094540 49 167 1.0 5.0 0.00 0.00 0.00 72 1019.6
20260509093038 51 107 2.0 4.0 0.00 0.00 0.00 68 1019.6
20260509091538 53 198 7.0 11.0 0.00 0.00 0.00 64 1019.4
20260509090035 52 174 5.0 9.0 0.00 0.00 0.00 65 1019.4
20260509084539 51 159 6.0 8.0 0.00 0.00 0.00 69 1019.3
20260509083035 49 141 5.0 8.0 0.00 0.00 0.00 72 1019.4
20260509081532 49 134 2.0 8.0 0.00 0.00 0.00 71 1019.3
20260509080040 50 137 3.0 6.0 0.00 0.00 0.00 69 1019.2
20260509074527 50 127 1.0 5.0 0.00 0.00 0.00 69 1019.1
20260509073037 54 125 3.0 6.0 0.00 0.00 0.00 62 1019.0
20260509071518 55 166 5.0 9.0 0.00 0.00 0.00 58 1018.8
20260509070019 56 178 5.0 10.0 0.00 0.00 0.00 57 1018.6
20260509064514 56 174 7.0 10.0 0.00 0.00 0.00 57 1018.6
20260509063013 57 184 6.0 11.0 0.00 0.00 0.00 54 1018.6
20260509061512 57 203 7.0 12.0 0.00 0.00 0.00 54 1018.5
20260509060016 58 223 8.0 12.0 0.00 0.00 0.00 52 1018.4
20260509054518 58 167 6.0 15.0 0.00 0.00 0.00 52 1018.4
20260509053013 58 205 5.0 11.0 0.00 0.00 0.00 51 1018.2
20260509051506 59 174 8.0 13.0 0.00 0.00 0.00 48 1018.1
20260509050006 59 187 6.0 13.0 0.00 0.00 0.00 48 1017.9
20260509044503 60 244 6.0 12.0 0.00 0.00 0.00 45 1017.7
20260509043001 60 191 7.0 15.0 0.00 0.00 0.00 44 1017.5
20260509041600 60 240 3.0 13.0 0.00 0.00 0.00 44 1017.3
20260509040107 61 238 4.0 10.0 0.00 0.00 0.00 44 1017.2
20260509034556 61 207 7.0 10.0 0.00 0.00 0.00 43 1016.8
20260509033055 61 193 4.0 10.0 0.00 0.00 0.00 43 1016.7
20260509031552 63 193 7.0 12.0 0.00 0.00 0.00 40 1016.2
20260509030050 64 199 7.0 13.0 0.00 0.00 0.00 38 1015.7
20260509024548 66 262 12.0 20.0 0.00 0.00 0.00 35 1015.6
20260509023048 67 239 14.0 24.0 0.00 0.00 0.00 34 1015.4
20260509021547 68 255 13.0 27.0 0.00 0.00 0.00 33 1015.2
20260509020047 69 265 15.0 24.0 0.00 0.00 0.00 32 1015.0
20260509014546 70 245 23.0 31.0 0.00 0.00 0.00 30 1015.0
20260509013058 71 272 16.0 27.0 0.00 0.00 0.00 29 1014.7
20260509011545 71 236 15.0 28.0 0.00 0.00 0.00 26 1014.7
20260509010044 71 255 20.0 28.0 0.00 0.00 0.00 25 1014.8
20260509004607 72 257 20.0 31.0 0.00 0.00 0.00 25 1014.9
20260509003048 72 232 22.0 31.0 0.00 0.00 0.00 25 1015.1
20260509001543 73 271 19.0 30.0 0.00 0.00 0.00 25 1014.9
20260509000042 72 263 19.0 28.0 0.00 0.00 0.00 23 1015.0
20260508234545 72 252 17.0 27.0 0.00 0.00 0.00 21 1014.9
20260508233040 72 250 18.0 27.0 0.00 0.00 0.00 22 1014.9
20260508231539 73 229 19.0 33.0 0.00 0.00 0.00 18 1014.9
20260508230052 73 269 15.0 26.0 0.00 0.00 0.00 22 1014.8